Regional Weather Roundup
Issued by NWS State College, PA

Home | Current Version | Previous Version | Text Only | Print | Product List | Glossary Off
Versions: 1 2 3 4 5 6 7 8 9 10 11 12 13 14 15 16 17 18 19 20 21 22 23 24 25 26 27 28 29 30 31 32 33 34 35 36 37 38 39 40 41 42 43 44 45 46 47 48 49 50

000
ASUS41 KCTP 281803
RWRCTP

REGIONAL WEATHER ROUNDUP
NATIONAL WEATHER SERVICE STATE COLLEGE PA
100 PM EST SUN DEC 28 2014

Note: "fair" indicates few or no clouds below 12,000 feet with no
significant weather and/or obstructions to visibility.

* = STATION THAT DOES NOT REPORT PRECIPITATION /E.G. RAIN...SNOW...ETC/
    THUNDER OR FOG.

PAZ002>004-007>009-013>016-020>023-029>032-281900-
WESTERN PENNSYLVANIA

CITY           SKY/WX    TMP DP  RH WIND       PRES   REMARKS
ERIE           CLOUDY    37  26  64 NW5       30.04F
MEADVILLE      CLOUDY    33  29  85 N6        30.00F
FRANKLIN*      CLOUDY    34  28  80 W7        30.01F
NEW CASTLE       N/A     37  33  85 W5        30.03F
BEAVER COUNTY  CLOUDY    37  32  81 NW7       30.03F
BUTLER*        CLOUDY    36  34  93 W5        30.04R
PITTSBURGH INT CLOUDY    36  34  92 NW12      30.03S
PITTSBURGH     CLOUDY    36  32  85 NW6       30.01F FOG
INDIANA*       NOT AVBL
LATROBE        LGT RAIN  37  37 100 W6        30.03F FOG
WASHINGTON CO* NOT AVBL
$$

PAZ004>006-010>012-017>019-024>028-033>037-041-042-045-046-049>053-281900-
CENTRAL PENNSYLVANIA

CITY           SKY/WX    TMP DP  RH WIND       PRES   REMARKS
BRADFORD       CLOUDY    34  29  82 W9        29.93F
DUBOIS         CLOUDY    36  32  85 NW7       29.95F
CLEARFIELD     CLOUDY    38  33  82 NW8       29.96F
JOHNSTOWN      CLOUDY    34  33  96 W13       29.94F FOG
ALTOONA        CLOUDY    43  38  82 NW7       29.95F
STATE COLLEGE  CLOUDY    43  36  75 W9        29.94F
WILLIAMSPORT   CLOUDY    47  37  68 W6        29.92F
SELINSGROVE    PTSUNNY   50  39  66 W5        29.94F
FT INDIANTOWN  CLOUDY    50  42  73 W9        29.93R
CAPITAL CITY   CLOUDY    48  42  80 CALM      29.93F
HARRISBURG     CLOUDY    45  41  86 CALM      29.92F
YORK           CLOUDY    54  42  64 W5        29.93F
$$

PAZ038>040-043-044-047-048-054-055-060>062-067>071-281900-
EASTERN PENNSYLVANIA

CITY           SKY/WX    TMP DP  RH WIND       PRES   REMARKS
SCRANTON       CLOUDY    46  37  71 NW10      29.91F
MOUNT POCONO   CLOUDY    42  37  82 NW12      29.88R
ALLENTOWN      CLOUDY    51  43  74 SW6       29.90F
QUAKERTOWN*    CLOUDY    52  43  71 W6        29.92F
READING        CLOUDY    52  41  66 W8        29.92F
LANCASTER      CLOUDY    49  41  74 NW7       29.93F
COATESVILLE    CLOUDY    50  41  71 W7        29.92F
POTTSTOWN      CLOUDY    50  41  71 CALM      29.92F
BLUE BELL      CLOUDY    52  43  71 W3        29.91F
DOYLESTOWN     CLOUDY    49  43  80 SW5       29.90F
WILLOW GROVE   NOT AVBL
NORTH PHILA    CLOUDY    55  39  54 W8        29.93S
PHILADELPHIA   CLOUDY    53  41  63 SW7       29.93F
$$



USA.gov is the U.S. government's official web portal to all federal, state and local government web resources and services.